Content
SEND FEEDBACK

Daily
Averages
Monthly
Summary
United States of America

VINTON, IOWA


Home > North America > United States > Iowa
Elevation: 821 feet     Latitude: 42 10N     Longitude: 092 00W

WEATHER
 
SELECT A DAY
Number of Records: 281,420;   Date Range: 6/5/02 - 6/28/14
 
SHARE

PRINT THIS DATA

[ ← Previous Day ]
WEATHER ALMANAC - JANUARY 31, 2013
[ Next Day → ]
[ °C ]   °F
Weather ElementAverageHighLow
Temperature3.4 °F12.7 °F (12:35 am)-2.4 °F (9:55 pm)
Dewpoint-4.4 °F6.1 °F (12:55 am)-10.8 °F (9:55 pm)
Humidity70.3 %78 % (3:55 am)64 % (2:15 pm)
Barometer30.04 in30.31 in (11:35 pm)29.80 in (12:35 am)
Wind Speed18.1 mph26.5 mph (2:15 pm)
Wind Gust34.5 mph (1:55 pm)
Weather ElementAverage
Visibility8.7 mi
Wind DirectionWNW (304.6 °)

Weather ElementTotal
Precipitation---
Heating Degree Days59.9 (Base 65)
Averaged from 71 records on January 31, 2013
WEATHER CONDITIONS BREAKOUT
WIND DIRECTION BREAKOUT
WEATHER BY HOUR - JANUARY 31, 2013
[ °C ]   °F
Local TimeTemperatureDewpointHumidityBarometerVisibilityWind DirectionWind SpeedGust SpeedPrecipitationEventsConditions
12:35 AM12.7 °F5.9 °F74 %29.80 in10.0 miNW (310°)18.4 mph28.8 mphScattered Clouds
12:55 AM12.7 °F6.1 °F75 %29.80 in10.0 miWNW (300°)16.1 mph21.9 mphMostly Cloudy
1:15 AM10.2 °F3.0 °F73 %29.81 in10.0 miWNW (300°)19.6 mphScattered Clouds
1:35 AM9.9 °F2.7 °F73 %29.82 in10.0 miWNW (300°)18.4 mph25.3 mphClear
1:55 AM8.2 °F1.4 °F74 %29.83 in10.0 miWNW (300°)16.1 mph24.2 mphClear
2:15 AM7.7 °F0.5 °F72 %29.84 in10.0 miNW (310°)15.0 mph25.3 mphClear
2:35 AM7.7 °F1.0 °F74 %29.85 in10.0 miWNW (300°)15.0 mphClear
2:55 AM7.7 °F1.4 °F75 %29.85 in10.0 miWNW (300°)11.5 mphClear
3:15 AM7.7 °F1.4 °F75 %29.84 in10.0 miWNW (300°)12.7 mph18.4 mphClear
3:35 AM7.7 °F1.4 °F75 %29.84 in10.0 miWNW (300°)9.2 mphClear
3:55 AM7.7 °F2.1 °F78 %29.85 in10.0 miWNW (290°)11.5 mphClear
4:15 AM7.7 °F1.8 °F77 %29.85 in10.0 miWNW (290°)11.5 mphClear
4:35 AM7.7 °F1.4 °F75 %29.86 in10.0 miWNW (290°)11.5 mph17.3 mphClear
4:55 AM6.4 °F0.1 °F75 %29.86 in10.0 miWNW (300°)11.5 mph19.6 mphScattered Clouds
5:15 AM5.0 °F-0.9 °F76 %29.86 in10.0 miWNW (300°)9.2 mphClear
5:35 AM5.0 °F-0.8 °F77 %29.87 in10.0 miWNW (300°)15.0 mph21.9 mphClear
5:55 AM5.0 °F-1.8 °F73 %29.88 in10.0 miWNW (300°)18.4 mph27.6 mphClear
6:15 AM5.0 °F-1.7 °F74 %29.88 in10.0 miWNW (300°)17.3 mph23.0 mphClear
6:35 AM5.0 °F-1.7 °F74 %29.89 in10.0 miWNW (300°)16.1 mph26.5 mphScattered Clouds
6:55 AM5.0 °F-1.7 °F74 %29.90 in10.0 miNW (310°)19.6 mph25.3 mphOvercast
7:15 AM5.0 °F-1.5 °F75 %29.91 in10.0 miWNW (300°)17.3 mph24.2 mphOvercast
7:35 AM5.0 °F-1.7 °F74 %29.91 in10.0 miWNW (300°)16.1 mph20.7 mphOvercast
7:55 AM3.9 °F-3.1 °F73 %29.92 in10.0 miNW (310°)16.1 mph24.2 mphScattered Clouds
8:15 AM5.0 °F-3.1 °F69 %29.93 in10.0 miWNW (300°)18.4 mph26.5 mphClear
8:35 AM5.0 °F-1.7 °F74 %29.94 in7.0 miWNW (300°)17.3 mph21.9 mphScattered Clouds
8:55 AM3.2 °F-4.5 °F70 %29.95 in10.0 miWNW (300°)19.6 mph27.6 mphScattered Clouds
9:15 AM2.7 °F-5.1 °F70 %29.96 in10.0 miWNW (300°)20.7 mph29.9 mphClear
9:35 AM2.7 °F-5.3 °F70 %29.97 in10.0 miWNW (300°)16.1 mph25.3 mphScattered Clouds
9:55 AM2.7 °F-5.8 °F68 %29.98 in10.0 miNW (310°)20.7 mph28.8 mphClear
10:15 AM3.4 °F-5.1 °F68 %30.00 in10.0 miNW (310°)21.9 mph29.9 mphScattered Clouds
10:35 AM5.0 °F-3.8 °F67 %30.00 in10.0 miNW (310°)23.0 mph28.8 mphScattered Clouds
10:55 AM4.5 °F-3.5 °F70 %30.01 in7.0 miNW (310°)23.0 mph29.9 mphScattered Clouds
11:15 AM4.8 °F-3.6 °F68 %30.02 in7.0 miWNW (300°)19.6 mph32.2 mphScattered Clouds
11:35 AM5.0 °F-4.2 °F66 %30.03 in7.0 miNW (310°)19.6 mph31.1 mphScattered Clouds
11:55 AM5.0 °F-3.1 °F69 %30.03 in7.0 miWNW (300°)25.3 mphMostly Cloudy
12:15 PM5.0 °F-3.6 °F68 %30.04 in7.0 miWNW (300°)25.3 mph31.1 mphMostly Cloudy
12:35 PM5.0 °F-3.8 °F67 %30.05 in5.0 miNW (310°)20.7 mph28.8 mphHaze
12:55 PM5.0 °F-4.0 °F66 %30.05 in7.0 miNW (310°)20.7 mph28.8 mphScattered Clouds
1:15 PM5.0 °F-4.2 °F66 %30.05 in7.0 miWNW (300°)25.3 mph32.2 mphScattered Clouds
1:35 PM5.0 °F-4.0 °F66 %30.06 in7.0 miWNW (300°)24.2 mph33.4 mphScattered Clouds
1:55 PM5.0 °F-4.5 °F65 %30.06 in4.0 miNW (310°)25.3 mph34.5 mphHaze
2:15 PM5.0 °F-4.9 °F64 %30.07 in4.0 miWNW (300°)26.5 mph33.4 mphHaze
2:35 PM4.1 °F-5.3 °F65 %30.08 in4.0 miWNW (300°)21.9 mph34.5 mphHaze
2:55 PM4.3 °F-5.1 °F65 %30.09 in5.0 miNW (310°)24.2 mph33.4 mphHaze
3:15 PM3.0 °F-6.7 °F64 %30.10 in4.0 miNW (310°)24.2 mph33.4 mphHaze
3:35 PM1.4 °F-6.5 °F69 %30.11 in5.0 miNW (310°)24.2 mph31.1 mphHaze
3:55 PM1.4 °F-6.9 °F68 %30.12 in4.0 miNW (310°)21.9 mph31.1 mphHaze
4:15 PM1.4 °F-6.2 °F71 %30.12 in4.0 miWNW (300°)26.5 mph32.2 mphHaze
4:35 PM0.5 °F-7.6 °F69 %30.13 in5.0 miWNW (300°)24.2 mph34.5 mphHaze
4:55 PM1.0 °F-5.1 °F75 %30.14 in2.5 miWNW (300°)24.2 mph33.4 mphHaze
5:15 PM0.5 °F-6.9 °F71 %30.15 in5.0 miNW (310°)20.7 mph29.9 mphHaze
5:35 PM0.1 °F-8.0 °F69 %30.16 in10.0 miWNW (300°)20.7 mph31.1 mphScattered Clouds
5:55 PM0.1 °F-7.6 °F70 %30.18 in10.0 miNW (310°)20.7 mph27.6 mphScattered Clouds
6:15 PM0.1 °F-7.8 °F69 %30.19 in10.0 miNW (310°)19.6 mph29.9 mphScattered Clouds
6:35 PM0.1 °F-7.6 °F70 %30.20 in10.0 miNW (310°)17.3 mph26.5 mphScattered Clouds
6:55 PM-0.6 °F-9.2 °F67 %30.20 in10.0 miNW (310°)17.3 mph25.3 mphClear
7:15 PM-0.8 °F-9.0 °F68 %30.21 in10.0 miNW (310°)12.7 mph23.0 mphClear
7:35 PM-1.1 °F-9.4 °F68 %30.22 in10.0 miNW (310°)18.4 mph26.5 mphClear
7:55 PM-1.3 °F-9.4 °F69 %30.23 in10.0 miNW (310°)12.7 mph25.3 mphClear
8:15 PM-1.3 °F-9.4 °F69 %30.23 in10.0 miNW (310°)15.0 mph20.7 mphClear
8:35 PM-1.5 °F-9.6 °F69 %30.24 in10.0 miNW (310°)13.8 mphClear
8:55 PM-1.8 °F-10.3 °F67 %30.25 in10.0 miNW (310°)13.8 mph19.6 mphClear
9:15 PM-2.2 °F-10.3 °F68 %30.26 in10.0 miNW (310°)13.8 mph19.6 mphClear
9:35 PM-2.2 °F-10.3 °F68 %30.27 in10.0 miNW (310°)15.0 mph23.0 mphScattered Clouds
9:55 PM-2.4 °F-10.8 °F67 %30.27 in10.0 miNW (320°)13.8 mph26.5 mphClear
10:15 PM-2.4 °F-10.5 °F68 %30.28 in10.0 miNW (310°)17.3 mph24.2 mphClear
10:35 PM-2.4 °F-10.5 °F68 %30.28 in10.0 miNW (310°)15.0 mph20.7 mphClear
10:55 PM-2.4 °F-10.3 °F69 %30.29 in10.0 miNW (310°)13.8 mph19.6 mphClear
11:15 PM-2.4 °F-10.5 °F68 %30.29 in10.0 miNW (310°)17.3 mph21.9 mphClear
11:35 PM-2.4 °F-10.3 °F69 %30.31 in10.0 miWNW (300°)12.7 mph21.9 mphClear
11:55 PM-2.4 °F-10.5 °F68 %30.31 in10.0 miNW (310°)18.4 mph25.3 mphClear
Hourly data recorded from KVTI, located miles away from Vinton, Iowa







STORIES FROM OUR PARTNERS